Probability
0 0 0 0 0 0 0 0 0 0 0 0 0 0 0 0 0 0 0 0 0 0 0 0 0 0 0 0 0 0 0 0 0 0 0 0 0 0 0 0 0 0 0
0 0 0 0 0 0 0 0 0 0 0 0 0 0 0 0 0 0 0 0 0 0 0 0 0 0 0 0 0 0 0 0 0 0 0 0 0 0 0 0 0 0 0
0 0 0 0 0 0 0 0 0 0 0 0 0 0 0 0 0 0 0 0 0 0 0 0 0 0 0 0 0 0 0 0 0 0 0 0 0 0 0 0 0 0 0
0 0 0 0 0 0 0 0 0 0 0 0 0 0 0 0 0 0 0 0 0 0 0 0 0 0 0 0 0 0 0 0 0 0 0 0 0 0 0 0 0 0 0
0 0 0 0 0 0 0 0 0 0 0 0 0 0 0 0 0 0 0 0 0 0 0 0 0 0 0 0 0 0 0 0 0 0 0 0 0 0 0 0 0 0 0
0 0 0 0 0 0 0 0 0 0 0 0 0 0 0 0 0 0 0 0 0 0 0 0 0 0 0 0 0 0 0 0 0 0 0 0 0 0 0 0 0 0 0
0 0 0 0 0 0 0 0 0 0 0 0 0 0 0 0 0 0 0 0 0 0 0 0 0 0 0 0 0 0 0 0 0 0 0 0 0 0 0 0 0 0 0
0 0 0 0 0 0 0 0 0 0 0 0 0 0 0 0 0 0 0 0 0 0 0 0 0 0 0 0 0 0 0 0 0 0 0 0 0 0 0 0 0 0 0
0 0 0 0 0 0 0 0 0 0 0 0 0 0 0 0 0 0 0 0 0 0 0 0 0 0 0 0 0 0 0 0 0 0 0 0 0 0 0 0 0 0 0
0 0 0 0 0 0 0 0 0 0 0 0 0 0 0 0 0 0 0 0 0 0 0 0 0 0 0 0 0 0 0 0 0 0 0 0 0 0 0 0 0 0 0
0 0 0 0 0 0 0 0 0 0 0 0 0 0 0 0 0 0 0 0 0 0 0 0 0 0 0 0 0 0 0 0 0 0 0 0 0 0 0 0 0 0 0
0 0 0 0 0 0 0 0 0 0 0 0 0 0 0 0 0 0 0 0 0 0 0 0 0 0 0 0 0 0 0 0 0 0 0 0 0 0 0 0 0 0 0
0 0 0 0 0 0 0 0 0 0 0 0 0 0 0 0 0 0 0 0 0 0 0 0 0 0 0 0 0 0 0 0 0 0 0 0 0 0 0 0 0 0 0
0 0 0 0 0 0 0 0 0 0 0 0 0 0 0 0 0 0 0 0 0 0 0 0 0 0 0 0 0 0 0 0 0 0 0 0 0 0 0 0 0 0 0
0 0 0 0 0 0 0 0 0 0 0 0 0 0 0 0 0 0 0 0 0 0 0 0 0 0 0 0 0 0 0 0 0 0 0 0 0 0 0 0 0 0 0
0 0 0 0 0 0 0 0 0 0 0 0 0 0 0 0 0 0 0 0 0 0 0 0 0 0 0 0 0 0 0 0 0 0 0 0 0 0 0 0 0 0 0
0 0 0 0 0 0 0 0 0 0 0 0 0 0 0 0 0 0 0 0 0 0 0 0 0 0 0 0 0 0 0 0 0 0 0 0 0 0 0 0 0 0 0
0 0 0 0 0 0 0 0 0 0 0 0 0 0 0 0 0 0 0 0 0 0 0 0 0 0 0 0 0 0 0 0 0 0 0 0 0 0 0 0 0 0 0
0 0 0 0 0 0 0 0 0 0 0 0 0 0 0 0 0 0 0 0 0 0 0 0 0 0 0 0 0 0 0 0 0 0 0 0 0 0 0 0 0 0 0
0 0 0 0 0 0 0 0 0 0 0 0 0 0 0 0 0 0 0 0 0 0 0 0 0 0 0 0 0 0 0 0 0 0 0 0 0 0 0 0 0 0 0
0 0 0 0 0 0 0 0 0 0 0 0 0 0 0 0 0 0 0 0 0 0 0 0 0 0 0 0 0 0 0 0 0 0 0 0 0 0 0 0 0 0 0
0 0 0 0 0 0 0 0 0 0 0 0 0 0 0 0 0 0 0 0 0 0 0 0 0 0 0 0 0 0 0 0 0 0 0 0 0 0 0 0 0 0 0
0 0 0 0 0 0 0 0 0 0 0 0 0 0 0 0 0 0 0 0 0 0 0 0 0 0 0 0 0 0 0 0 0 0 0 0 0 0 0 0 0 0 0
0 0 0 0 0 0 0 0 0 0 0 0 0 0 0 0 0 0 0 0 0 0 0 0 0 0 0 0 0 0 0 0 0 0 0 0 0 0 0 0 0 0 0
0 0 0 0 0 0 0 0 0 0 0 0 0 0 0 0 0 0 0 0 0 0 0 0 0 0 0 0 0 0 0 0 0 0 0 0 0 0 0 0 0 0 0
0 0 0 0 0 0 0 0 0 0 0 0 0 0 0 0 0 0 0 0 0 0 0 0 0 0 0 0 0 0 0 0 0 0 0 0 0 0 0 0 0 0 0
Wind_Speed
8 8 7 7 7 7 7 8 8 7 7 8 8 8 7 7 7 6 6 6 6 6 5 6 7 6 5 4 4 4 5 5 11 9 5 4 5 7 9 7 7 7 9
7 7 7 6 6 7 7 7 7 7 7 8 8 7 7 7 7 8 8 7 7 7 7 7 8 5 6 5 5 6 6 6 8 13 7 5 6 7 7 8 8 8 7
6 6 6 6 6 7 7 6 6 7 7 7 7 8 7 7 7 7 7 7 7 8 7 7 8 6 7 6 6 6 6 7 6 9 10 6 5 5 6 7 8 7 9
5 6 6 7 7 7 6 6 6 6 6 7 7 7 7 7 7 6 6 6 7 7 7 7 7 7 8 8 7 7 7 7 7 8 9 7 5 5 5 6 7 5 7
5 6 6 5 5 5 5 5 5 5 6 6 6 5 5 5 6 6 6 7 7 7 7 7 8 10 13 11 8 7 6 6 6 7 8 7 6 5 5 5 8 7 7
5 5 4 4 4 4 4 4 4 4 4 4 5 5 5 5 8 10 8 6 6 7 7 7 8 10 13 18 19 18 14 9 7 7 8 9 9 7 6 7 7 8 7
4 4 4 4 4 4 4 4 4 4 4 4 5 5 6 7 10 11 11 6 6 6 7 6 7 8 12 7 13 18 16 19 19 12 10 10 9 8 8 9 8 9 9
4 3 3 4 4 3 3 4 4 3 4 4 5 5 5 6 10 11 11 7 5 6 7 7 7 7 8 9 8 8 9 10 13 10 9 10 10 9 9 10 10 9 8
4 4 4 4 4 3 4 4 3 3 3 4 4 5 5 6 10 11 11 4 5 6 7 7 7 7 13 17 11 9 9 9 14 19 21 19 21 21 16 7 6 7 8
5 4 3 4 4 4 4 3 2 2 3 3 3 4 5 5 9 11 10 3 4 5 5 6 11 12 16 18 10 8 10 9 8 10 12 14 12 13 18 9 5 6 6
3 3 3 3 3 3 2 2 2 2 2 2 3 3 4 6 8 10 11 5 5 5 5 4 6 15 17 18 16 8 13 14 8 7 7 7 6 5 6 6 5 5 6
3 3 2 2 2 2 2 1 1 2 2 2 3 4 3 4 6 9 12 12 11 6 5 4 6 15 17 18 14 14 20 17 5 5 6 6 5 5 5 5 5 5 6
3 3 2 2 1 2 2 2 1 1 2 2 3 4 4 3 5 11 13 14 14 8 6 11 14 17 16 11 13 18 14 6 5 6 6 6 5 5 4 3 4 5 6
4 3 2 2 1 1 1 2 2 2 2 3 3 4 4 4 4 4 5 6 10 9 7 10 15 15 11 11 11 8 5 5 6 6 6 5 4 3 3 3 3 3 4
3 2 2 2 2 1 1 2 2 3 4 4 4 4 4 5 7 11 8 5 4 6 6 4 3 3 4 4 5 5 4 5 6 5 5 5 5 4 4 3 3 3 3
3 2 2 1 1 1 1 2 4 5 8 9 9 8 7 10 14 15 15 15 15 15 9 3 4 4 5 5 5 5 5 5 5 5 5 5 5 4 4 3 3 3 4
3 2 2 1 1 1 1 2 4 5 7 8 10 11 11 13 14 14 15 14 14 13 5 4 5 5 5 5 5 5 5 5 5 5 5 5 4 4 4 4 4 3 4
2 2 1 1 1 2 2 2 3 4 5 4 6 10 12 13 14 14 14 11 6 6 4 5 5 5 5 5 5 5 6 5 5 5 4 4 4 4 4 4 4 4 4
2 1 1 1 1 2 2 2 3 4 5 5 4 6 10 11 13 13 12 5 5 5 5 5 5 5 5 5 5 5 5 5 5 4 4 4 4 4 4 4 4 7 5
1 2 1 1 1 1 2 3 3 4 4 5 5 5 5 6 5 6 5 5 5 6 5 6 5 6 5 5 5 5 5 5 5 5 4 4 4 4 5 5 4 4 4
1 1 2 1 1 2 3 4 4 4 5 5 6 7 12 6 5 6 5 5 5 6 6 6 6 6 5 5 5 6 6 6 5 5 5 4 4 4 4 4 4 4 4
1 1 1 2 2 3 4 3 4 4 5 6 6 7 13 7 5 6 6 6 6 5 6 6 6 5 5 6 6 6 6 6 6 5 5 5 4 5 5 4 4 4 4
1 1 2 2 3 5 5 3 4 5 5 6 6 6 6 6 6 6 6 6 6 6 6 6 6 6 6 6 6 6 7 7 6 6 6 5 5 5 5 5 5 4 4
1 2 2 3 3 3 4 5 5 5 6 6 6 6 6 6 6 7 7 7 6 6 6 6 7 9 10 8 7 6 6 7 7 6 8 7 7 6 5 5 5 5 5
1 2 3 3 4 4 4 5 5 6 6 6 6 6 6 7 7 7 7 7 7 7 8 8 7 8 10 11 10 9 13 17 15 9 7 7 8 7 7 6 6 5 5
2 3 3 3 4 4 5 5 6 6 6 7 7 7 7 7 8 8 7 7 7 7 8 7 9 10 11 10 12 15 18 18 18 17 9 6 7 7 7 6 7 6 6
Wind_Direction
203 203 204 204 202 201 204 208 205 202 198 199 201 202 204 205 202 203 212 210 217 229 231 231 240 238 239 240 236 237 239 239 271 281 257 257 257 264 277 273 271 272 279
202 199 204 203 197 200 208 207 200 200 199 200 198 202 207 207 204 206 215 216 220 230 236 238 246 246 245 245 242 245 248 243 259 282 285 271 258 258 263 266 276 278 269
196 198 203 202 201 206 208 203 198 199 199 198 196 203 207 208 208 212 215 220 225 231 234 237 245 244 252 250 247 250 254 259 254 271 284 277 267 264 269 270 270 271 273
191 196 205 207 205 207 205 200 198 197 197 199 202 205 207 208 212 215 216 222 230 235 235 236 241 240 248 252 254 253 255 260 261 267 278 281 274 264 261 271 280 262 268
187 198 210 209 203 199 198 198 195 195 199 197 199 206 209 211 217 216 219 225 231 239 243 243 245 252 257 262 266 259 253 259 265 271 278 284 281 278 267 265 279 280 265
189 203 203 192 191 194 196 191 189 194 195 193 202 208 214 226 238 239 240 231 231 236 246 251 255 263 269 275 280 282 279 276 272 268 276 278 281 273 270 269 278 286 285
189 196 193 188 192 196 189 184 193 198 198 206 214 216 226 239 249 253 255 251 237 238 245 253 262 264 275 269 278 283 284 283 282 279 276 275 277 274 272 273 267 268 275
184 192 191 184 189 186 180 194 202 198 203 213 221 225 232 247 257 263 265 259 247 247 247 247 252 259 264 274 265 265 262 267 273 274 264 266 268 267 259 266 271 274 268
190 196 192 183 182 182 193 205 206 201 216 220 223 227 234 253 262 268 272 257 252 255 253 250 256 257 273 285 284 275 274 271 280 281 280 282 286 290 289 284 279 282 285
199 194 185 179 181 191 201 205 205 206 223 229 240 237 238 250 265 273 278 261 258 261 258 255 267 275 282 288 283 275 278 278 275 280 282 285 284 284 289 282 265 273 281
177 164 164 171 180 187 186 191 197 212 227 242 252 257 251 257 272 278 283 276 256 259 259 255 258 282 289 291 291 282 284 292 284 280 279 276 274 270 271 264 249 250 264
144 147 155 162 166 154 160 188 195 199 230 253 261 272 264 264 273 279 283 285 286 273 265 258 263 284 289 292 295 294 298 304 297 290 283 279 275 270 266 263 256 249 246
139 150 154 148 149 157 170 192 213 213 232 257 258 268 273 264 269 282 286 289 291 289 274 281 288 293 297 297 296 299 304 302 290 286 284 280 271 265 265 266 266 264 266
145 152 149 147 158 178 192 196 209 225 240 256 262 268 274 274 266 265 266 276 284 287 285 287 295 299 299 297 298 299 289 274 280 275 275 274 270 265 261 259 268 276 279
143 150 154 164 179 208 236 231 234 230 236 253 250 248 261 270 271 284 288 273 264 263 284 277 275 283 280 278 279 275 271 280 286 276 272 277 277 274 272 264 263 269 268
150 163 173 182 193 210 254 299 289 282 288 289 286 283 278 283 294 298 301 302 303 302 304 289 279 273 274 277 280 281 276 276 275 273 273 272 273 274 276 273 270 264 272
162 174 180 189 207 233 252 272 297 306 300 299 298 298 298 299 301 303 304 306 306 309 300 281 276 274 273 273 272 274 276 275 274 273 273 270 269 269 270 273 274 272 273
154 187 201 201 213 229 244 259 270 283 297 296 296 300 304 304 305 306 308 312 303 298 271 270 272 271 271 270 270 272 274 274 271 269 267 266 263 264 267 268 268 265 273
160 185 199 204 217 238 257 267 271 274 279 287 292 296 303 305 305 303 307 294 280 277 272 270 270 270 270 270 270 270 269 270 271 269 267 261 255 254 261 264 265 275 277
179 242 271 226 222 259 269 270 273 274 279 283 284 287 293 293 287 289 286 273 271 273 272 271 271 270 270 269 269 269 270 269 268 264 264 260 254 251 256 260 260 263 263
184 227 284 293 253 259 262 264 268 272 276 280 280 286 295 292 282 280 279 275 271 271 272 272 272 272 270 268 266 265 265 267 262 258 257 254 251 253 253 253 253 255 261
191 214 237 253 263 267 272 267 270 274 277 280 284 290 299 296 282 280 279 277 273 268 267 268 269 266 263 264 265 266 266 267 264 258 255 250 248 251 250 248 248 251 256
204 241 268 272 271 284 294 281 276 275 277 278 283 287 289 285 282 281 281 280 278 275 272 268 269 270 266 263 259 258 260 262 260 256 254 254 250 247 244 243 242 247 251
213 242 261 273 277 274 275 276 275 276 278 279 281 282 281 280 280 282 281 280 278 276 273 270 269 270 270 270 266 260 257 259 255 250 246 247 247 245 240 237 237 241 245
234 255 265 269 273 276 278 279 279 280 281 283 283 283 281 281 281 281 280 278 278 277 276 274 272 272 271 269 268 266 269 272 271 262 242 239 239 235 234 234 234 236 238
257 267 272 271 271 272 274 277 279 281 280 282 281 279 280 280 280 280 279 277 277 278 278 275 270 269 270 272 270 272 275 275 274 273 261 240 233 231 227 229 229 230 233